Farmington, MO

4:06 PM CST on December 09, 2019 (GMT -0600)
Farmington Regional

Weather History for KFAM - October, 2019

Change the Weather History Date:

Wednesday, October 30, 2019

  Actual Average Record
Temperature  
Mean Temperature 40 °F -  
Max Temperature 42 °F 60 °F 78 °F (2016)
Min Temperature 37 °F 43 °F 30 °F (2015)
Degree Days  
Heating Degree Days 26    
Moisture  
Dew Point 39 °F    
Average Humidity 99    
Maximum Humidity 100    
Minimum Humidity 93    
Precipitation  
Precipitation 0.42 in - - ()
Sea Level Pressure  
Sea Level Pressure 30.05 in    
Wind  
Wind Speed 7 mph (North)    
Max Wind Speed 14 mph    
Max Gust Speed 18 mph    
Visibility 4 miles    
Events Fog , Rain    
Averages and records for this station are not official NWS values.
T = Trace of Precipitation, MM = Missing Value Source: NWS Daily Summary

Daily Weather History Graph

Daily Weather History Graph

Search for Another Location

Airport or City:

Astronomy

Oct. 30, 2019 Rise Set
Actual Time 7:24 AM CDT 6:05 PM CDT
Civil Twilight 6:57 AM CDT 6:32 PM CDT
Nautical Twilight 6:26 AM CDT 7:03 PM CDT
Astronomical Twilight 5:56 AM CDT 7:33 PM CDT
Moon 10:05 AM CDT (10/30) 8:15 PM CDT (10/30)
Length of Visible Light 11h 34m
Length of Day
10h 40m
Waxing Crescent, 9% of the Moon is Illuminated
Oct 30
Waxing Crescent
Nov 4
First Quarter
Nov 12
Full
Nov 19
Last Quarter
Nov 26
New

Hourly Weather History & Observations

Time (CDT) Temp. Windchill Dew Point Humidity Pressure Visibility Wind Dir Wind Speed Gust Speed Precip Events Conditions
12:56 AM 39.0 °F 34.8 °F 39.0 °F 100% 30.24 in 5.0 mi NNE 5.8 mph - 0.04 in Rain Rain
1:56 AM 39.0 °F 33.4 °F 39.0 °F 100% 30.18 in 10.0 mi NE 8.1 mph - 0.04 in Rain Light Rain
3:56 AM 39.0 °F 34.0 °F 39.0 °F 100% 30.17 in 10.0 mi North 6.9 mph - 0.00 in   Overcast
4:28 AM 39.2 °F 35.0 °F 39.2 °F 100% 30.12 in 2.5 mi North 5.8 mph - 0.01 in Rain Light Rain
4:56 AM 39.0 °F 34.8 °F 37.9 °F 96% 30.17 in 2.5 mi North 5.8 mph - 0.01 in Rain Light Rain
5:56 AM 37.9 °F 33.5 °F 37.9 °F 100% 30.17 in 2.0 mi NNE 5.8 mph - 0.00 in Rain Light Rain
6:21 AM 37.4 °F 32.8 °F 37.4 °F 100% 30.10 in 3.0 mi North 5.8 mph - 0.00 in Rain Light Rain
6:56 AM 37.9 °F 34.4 °F 37.9 °F 100% 30.16 in 3.0 mi Variable 4.6 mph - 0.01 in   Overcast
7:14 AM 37.4 °F 32.8 °F 37.4 °F 100% 30.09 in 2.5 mi North 5.8 mph - 0.00 in Rain Light Rain
7:24 AM 37.4 °F 32.8 °F 37.4 °F 100% 30.09 in 3.0 mi Variable 5.8 mph - 0.00 in Rain Light Rain
7:36 AM 37.4 °F 32.1 °F 37.4 °F 100% 30.08 in 2.0 mi North 6.9 mph - 0.00 in Rain Light Rain
7:56 AM 37.9 °F 32.1 °F 37.9 °F 100% 30.14 in 2.5 mi North 8.1 mph - 0.00 in Rain Light Rain
8:33 AM 37.4 °F 31.4 °F 37.4 °F 100% 30.07 in 1.8 mi North 8.1 mph - 0.00 in   Overcast
8:56 AM 37.9 °F 32.7 °F 37.9 °F 100% 30.14 in 2.0 mi North 6.9 mph - 0.00 in   Overcast
9:09 AM 39.2 °F 35.0 °F 37.4 °F 93% 30.09 in 1.8 mi North 5.8 mph - N/A   Overcast
9:41 AM 39.2 °F 33.0 °F 37.4 °F 93% 30.08 in 1.8 mi North 9.2 mph - 0.00 in Rain Light Rain
9:56 AM 39.0 °F 34.0 °F 39.0 °F 100% 30.13 in 1.8 mi NNE 6.9 mph - 0.00 in Rain Light Rain
10:09 AM 39.2 °F 33.6 °F 39.2 °F 100% 30.07 in 2.0 mi North 8.1 mph - 0.00 in Rain Light Rain
10:38 AM 39.2 °F 34.2 °F 39.2 °F 100% 30.07 in 4.0 mi NNE 6.9 mph - 0.00 in Rain Light Rain
10:56 AM 39.9 °F 35.1 °F 39.9 °F 100% 30.12 in 5.0 mi NE 6.9 mph - 0.03 in Rain Rain
11:08 AM 41.0 °F 35.8 °F 39.2 °F 93% 30.05 in 8.0 mi ENE 8.1 mph - 0.01 in Rain Light Rain
11:56 AM 41.0 °F 39.0 °F 41.0 °F 100% 30.10 in 8.0 mi North 3.5 mph - 0.05 in Rain Rain
12:56 PM 42.1 °F 37.7 °F 41.0 °F 96% 30.08 in 10.0 mi NNW 6.9 mph - 0.02 in Rain Light Rain
1:54 PM 41.0 °F 36.4 °F 41.0 °F 100% 30.00 in 10.0 mi NNW 6.9 mph - 0.01 in   Overcast
1:56 PM 41.0 °F 35.8 °F 41.0 °F 100% 30.04 in 10.0 mi North 8.1 mph - 0.01 in   Overcast
2:29 PM 42.8 °F 39.3 °F 41.0 °F 93% 29.98 in 10.0 mi North 5.8 mph - N/A   Overcast
2:56 PM 42.1 °F 36.6 °F 41.0 °F 96% 30.03 in 10.0 mi NNW 9.2 mph - N/A   Overcast
3:08 PM 41.0 °F 35.8 °F 41.0 °F 100% 29.99 in 7.0 mi North 8.1 mph - N/A   Overcast
3:31 PM 41.0 °F 36.4 °F 41.0 °F 100% 29.98 in 2.0 mi NNW 6.9 mph - N/A   Overcast
3:42 PM 41.0 °F 35.2 °F 41.0 °F 100% 29.99 in 1.0 mi NW 9.2 mph - N/A   Overcast
3:47 PM 41.0 °F 35.8 °F 41.0 °F 100% 30.00 in 0.5 mi WNW 8.1 mph - N/A Fog Fog
3:56 PM 41.0 °F 34.7 °F 41.0 °F 100% 30.04 in 0.2 mi NW 10.4 mph - N/A Fog Fog
4:20 PM 41.0 °F 34.7 °F 41.0 °F 100% 29.99 in 0.5 mi NW 10.4 mph - 0.00 in Fog , Rain Light Rain
4:27 PM 39.2 °F 33.0 °F 39.2 °F 100% 29.98 in 0.8 mi North 9.2 mph - 0.00 in Rain Light Rain
4:54 PM 39.2 °F 31.2 °F 39.2 °F 100% 29.99 in 0.8 mi NW 13.8 mph - 0.00 in Rain Light Rain
4:56 PM 39.9 °F 32.5 °F 39.9 °F 100% 30.04 in 0.8 mi NNW 12.7 mph - 0.01 in Rain Light Rain
5:06 PM 39.2 °F 33.6 °F 39.2 °F 100% 29.97 in 1.0 mi North 8.1 mph 18.4 mph 0.00 in Rain Light Rain
5:16 PM 39.2 °F 32.5 °F 39.2 °F 100% 29.98 in 1.8 mi NNW 10.4 mph - 0.00 in Rain Light Rain
5:51 PM 39.2 °F 33.0 °F 39.2 °F 100% 29.97 in 1.0 mi North 9.2 mph - 0.00 in   Overcast
6:03 PM 39.2 °F 33.6 °F 39.2 °F 100% 29.98 in 0.8 mi NNW 8.1 mph - N/A   Overcast
6:23 PM 39.2 °F 33.0 °F 39.2 °F 100% 29.99 in 1.2 mi NNW 9.2 mph - N/A   Overcast
6:47 PM 37.4 °F 31.4 °F 37.4 °F 100% 29.98 in 2.5 mi NNW 8.1 mph - 0.01 in Rain Light Rain
6:56 PM 37.9 °F 32.7 °F 37.9 °F 100% 30.04 in 5.0 mi NNW 6.9 mph - 0.01 in Rain Light Rain
7:42 PM 37.4 °F 30.8 °F 37.4 °F 100% 29.98 in 7.0 mi NNW 9.2 mph - 0.00 in Rain Light Rain
7:56 PM 37.9 °F 34.4 °F 37.9 °F 100% 30.03 in 4.0 mi North 4.6 mph - 0.00 in Rain Light Rain
8:56 PM 37.9 °F 34.4 °F 37.9 °F 100% 30.01 in 6.0 mi North 4.6 mph - 0.02 in Rain Light Rain
9:56 PM 37.9 °F 32.7 °F 37.0 °F 97% 30.01 in 10.0 mi NW 6.9 mph - 0.04 in Rain Light Rain
10:18 PM 37.4 °F 29.8 °F 37.4 °F 100% 29.96 in 5.0 mi NNW 11.5 mph - 0.01 in Rain Light Rain
10:56 PM 37.9 °F 32.1 °F 37.0 °F 97% 30.02 in 5.0 mi NW 8.1 mph - 0.04 in Rain Rain
11:56 PM 37.9 °F 31.5 °F 36.0 °F 93% 30.02 in 10.0 mi NW 9.2 mph - 0.09 in Rain Light Rain